Weather History for KMEH - August, 2014

Change the Weather History Date:

Sunday, August 10, 2014

  Actual Average (KPDT) Record (KPDT)
Temperature  
Mean Temperature 66 °F 73 °F  
Max Temperature 89 °F 89 °F 119 °F (1898)
Min Temperature 43 °F 58 °F 40 °F (1911)
Degree Days  
Heating Degree Days 0 0  
Month to date heating degree days 0  
Since 1 June heating degree days 94  
Since 1 July heating degree days 11  
Cooling Degree Days 1 8  
Month to date cooling degree days 89  
Year to date cooling degree days 437  
Since 1 June cooling degree days 414  
Growing Degree Days 16 (Base 50)    
Moisture  
Dew Point 43 °F    
Average Humidity 50    
Maximum Humidity 89    
Minimum Humidity 19    
Precipitation  
Precipitation 0.00 in 0.01 in 0.14 in (1952)
Month to date precipitation 0.10  
Year to date precipitation 7.81  
Snow  
Snow 0.00 in 0.00 in 0.00 in (2002)
Month to date snowfall 0.0  
Year to date snowfall 7.7  
Since 1 July snowfall 0.0  
Snow Depth -    
Sea Level Pressure  
Sea Level Pressure 30.10 in    
Wind  
Wind Speed 1 mph (NNE)    
Max Wind Speed 7 mph    
Max Gust Speed -    
Visibility 10 miles    
Events      
T = Trace of Precipitation, MM = Missing Value Source: NWS Daily Summary

Daily Weather History Graph

Daily Weather History Graph

Search for Another Location

Airport or City:

Trip Planner

Search our weather history database for the weather conditions in past years. The results will help you decide how hot, cold, wet, or windy it might be!

Date:

Astronomy

Aug. 10, 2014 Rise Set
Actual Time 5:48 AM PDT 8:08 PM PDT
Civil Twilight 5:15 AM PDT 8:41 PM PDT
Nautical Twilight 4:34 AM PDT 9:22 PM PDT
Astronomical Twilight 3:48 AM PDT 10:08 PM PDT
Moon 7:54 PM PDT (8/10) 5:49 AM PDT (8/10)
Length of Visible Light 15h 26m
Length of Day
14h 20m
Full, 100% of the Moon is Illuminated
Aug 10
Full
Aug 17
Last Quarter
Aug 25
New
Sep 2
First Quarter
Sep 8
Full

Hourly Weather History & Observations

Time (PDT) Temp. Dew Point Humidity Pressure Visibility Wind Dir Wind Speed Gust Speed Precip Events Conditions
12:56 AM 50.0 °F 44.1 °F 80% 30.11 in 10.0 mi Calm Calm - N/A   Clear
1:56 AM 48.0 °F 43.0 °F 83% 30.11 in 10.0 mi Calm Calm - N/A   Clear
2:56 AM 46.9 °F 42.1 °F 83% 30.11 in 10.0 mi Calm Calm - N/A   Clear
3:56 AM 45.0 °F 41.0 °F 86% 30.12 in 10.0 mi Calm Calm - N/A   Clear
4:56 AM 44.1 °F 41.0 °F 89% 30.12 in 10.0 mi Calm Calm - N/A   Clear
5:56 AM 43.0 °F 39.9 °F 89% 30.14 in 10.0 mi Calm Calm - N/A   Clear
6:56 AM 46.0 °F 41.0 °F 83% 30.15 in 10.0 mi Calm Calm - N/A   Clear
7:56 AM 55.9 °F 45.0 °F 67% 30.14 in 10.0 mi Calm Calm - N/A   Clear
8:56 AM 70.0 °F 46.9 °F 44% 30.12 in 10.0 mi Calm Calm - N/A   Clear
9:56 AM 78.1 °F 44.1 °F 30% 30.12 in 10.0 mi Calm Calm - N/A   Clear
10:56 AM 82.9 °F 42.1 °F 24% 30.12 in 10.0 mi Calm Calm - N/A   Clear
11:56 AM 86.0 °F 39.0 °F 19% 30.11 in 10.0 mi Variable 3.5 mph - N/A   Clear
12:56 PM 87.1 °F 43.0 °F 21% 30.10 in 10.0 mi NNE 6.9 mph - N/A   Clear
1:56 PM 87.1 °F 42.1 °F 21% 30.10 in 10.0 mi Variable 4.6 mph - N/A   Clear
2:56 PM 89.1 °F 42.1 °F 19% 30.09 in 10.0 mi Variable 5.8 mph - N/A   Clear
3:56 PM 87.1 °F 41.0 °F 20% 30.09 in 10.0 mi Variable 6.9 mph - N/A   Clear
4:56 PM 87.1 °F 44.1 °F 22% 30.07 in 10.0 mi NNE 5.8 mph - N/A   Clear
5:56 PM 86.0 °F 42.1 °F 21% 30.06 in 10.0 mi Variable 4.6 mph - N/A   Clear
6:56 PM 82.9 °F 42.1 °F 24% 30.06 in 10.0 mi Variable 3.5 mph - N/A   Clear
7:56 PM 75.0 °F 44.1 °F 33% 30.06 in 10.0 mi Calm Calm - N/A   Clear
8:56 PM 68.0 °F 46.9 °F 47% 30.06 in 10.0 mi Calm Calm - N/A   Clear
9:56 PM 63.0 °F 48.0 °F 58% 30.06 in 10.0 mi Calm Calm - N/A   Clear
10:56 PM 59.0 °F 46.9 °F 64% 30.06 in 10.0 mi Calm Calm - N/A   Clear
11:56 PM 55.9 °F 46.0 °F 69% 30.06 in 10.0 mi Calm Calm - N/A   Clear